DECAYED

SL-16 DEB, 22329 (Decayed)

Orbit data source: Space-Track

SL-16 DEB, 22329 was space debris in LEO originally from a launch on Fri, 25 Dec 1992 UTC launched from the Tyuratam Missile And Space Complex (TTMTR). Debris objects in space refer to the collection of defunct objects orbiting the Earth. Examples of debris include non-operational satellites, rocket bodies, and fragments generated from explosions, collisions, or faulty payload assembly.

Not visible in the next 10 days
Identifier
22329, 1992-093S
Orbit
Decayed
Country
Flag of CISCIS
Related business
Manufacturer
Unknown
Mission
Decayed spacecraft
Bus & Motor
Unknown
Mass
Unknown
Launch date (UTC)
1992-12-25 (33 years ago)
Launch vehicle
Unknown
Launch site
Tyuratam Missile And Space Complex (TTMTR)
Object type
Payload
Rocket body
Debris
Shape & HBR
Unknown shape, 0.1 m
Radar Cross Section
Small (<0.1 m²)

Expand to show TLE details & history
Last TLE update: 4 months ago

TLE from 4 months ago
0 SL-16 DEB
1 22329U 92093S   26013.54521620  .12344414  37431-5  23317-2 0  9992
2 22329  70.8405 157.3631 0008403 335.8235  24.2603 16.31730088740155
Epoch: 2026-01-13T13:05Z
TLE epoch observation values (Epoch: 2026-01-13T13:05:06.679Z)
Latitude
-0.00001°
Longitude
-151.94075°
Altitude
185.492 km
Speed
7.798 km/s
True Right ascension
10h 29m 27s
True Declination
0° 00' 00"
Sunlit
Object was in full shadow at epoch
Visualization orbit readout
Latitude
Unknown
Longitude
Unknown
Altitude
Unknown
Speed
Unknown
Apparent Right ascension
Unknown
Apparent Declination
Unknown
Sunlit
N/A
Visualization observer readout
Local Sidereal Time
01:57:02
Azimuth
Unknown
Elevation
Unknown
Doppler factor
Unknown
Orbital elements
Apogee altitude
191.145 km
Perigee altitude
180.114 km
Semi-major axis
6,563.766 km
Eccentricity
0.00084
Inclination
70.8405°
RAAN
157.3631°
Arg. of periapsis
335.8235°
True anomaly
24.2999°
Mean anomaly
24.2603°
Eccentric anomaly
24.2801°
Mean motion
4.08144 °/min
Orbital period
88.2 mins
BSTAR
0.0023317
Loading maneuver chart data...
Computing Atmospheric mass density...
Loading historical data...
Loading historical data...
Loading historical data...
Loading historical data...
Loading historical data...
Loading historical data...
Loading historical data...

Documentation

Showing up to 5 results
|